Regional Weather Roundup
Issued by NWS Huntsville, AL

Home | Current Version | Previous Version | Text Only | Print | Product List | Glossary On
Versions: 1 2 3 4 5 6 7 8 9 10 11 12 13 14 15 16 17 18 19 20 21 22 23 24 25 26 27 28 29 30 31 32 33 34 35 36 37 38 39 40 41 42 43 44 45 46 47 48 49 50
698
ASUS44 KHUN 252110
RWRHUN

WEATHER ROUNDUP FOR THE TENNESSEE VALLEY
NATIONAL WEATHER SERVICE HUNTSVILLE AL
400 PM CDT MON SEP 25 2017

ALZ001>004-252200-
NORTHWEST ALABAMA

CITY           SKY/WX    TMP DP  RH WIND       PRES   REMARKS
COURTLAND HCN    N/A     84 N/A N/A E5          N/A
RUSSELLVILLE     N/A     82 N/A N/A MISG        N/A
SHOALS AIRPORT MOSUNNY   88  63  43 E7        29.95F
SHOALS TVA RES   N/A     84 N/A N/A MISG        N/A
$$

ALZ005>007-016-252200-
NORTH CENTRAL ALABAMA

CITY           SKY/WX    TMP DP  RH WIND       PRES   REMARKS
CULLMAN AG STN   N/A     82 N/A N/A SE5         N/A
DECATUR AP     MOSUNNY   87  66  49 VRB7      29.95F
HUNTSVILLE AP  MOSUNNY   87  67  51 SE9       29.94F HX  90
MERIDIANVILLE  MOSUNNY   86  61  42 E3        29.96F
REDSTONE ARSN  PTSUNNY   86  64  47 SE3       29.93F
VINEMONT AP    FAIR      85  63  47 NE3       29.98F
$$

ALZ008>010-252200-
NORTHEAST ALABAMA

CITY           SKY/WX    TMP DP  RH WIND       PRES   REMARKS
ALBERTVILLE    SUNNY     84  70  61 E5        29.95F
FORT PAYNE     SUNNY     82  57  42 N3        29.96S
SCOTTSBORO HCN   N/A     86 N/A N/A MISG        N/A
VALLEY HEAD      N/A     82 N/A N/A MISG        N/A
$$

TNZ076-096-097-252200-
SOUTHEASTERN MIDDLE TENNESSEE

CITY           SKY/WX    TMP DP  RH WIND       PRES   REMARKS
TULLAHOMA      MOSUNNY   84  61  45 VRB3      29.99S
WINCHESTER     MOSUNNY   82  64  54 CALM      29.97F
$$

...SURROUNDING SITES...

CITY           SKY/WX    TMP DP  RH WIND       PRES   REMARKS
ATLANTA        MOSUNNY   85  57  38 NE9       29.95F
ANNISTON       MOSUNNY   86  65  49 VRB3      29.93F
BIRMINGHAM     MOSUNNY   86  65  49 SE3       29.96F
CHATTANOOGA    MOSUNNY   87  57  35 NE3       29.95F
DALTON         MOSUNNY   84  61  45 N6        29.96F
GADSDEN        SUNNY     86  68  54 E9        29.94F
GOLDEN TRNGL   CLOUDY    85  67  54 E8        29.91F
HALEYVILLE     CLOUDY    80  67  64 SE3       29.98F
JACKSON TN     MOSUNNY   87  66  49 VRB5      29.94F
MEMPHIS        MOSUNNY   89  61  38 CALM      29.92F
NASHVILLE      MOSUNNY   88  62  41 CALM      29.96F
OXFORD MS      FAIR      84  64  51 E7        29.93F
ROME           SUNNY     85  62  46 NE6       29.94F
SAVANNAH       PTSUNNY   86  66  51 E6        29.93F
SELMER         PTSUNNY   86  64  48 E8        29.94F
TUPELO         MOSUNNY   87  64  46 VRB6      29.92F
TUSCALOOSA     PTSUNNY   86  67  52 SE5       29.91F
$$

...GULF COAST WEATHER...

CITY           SKY/WX    TMP DP  RH WIND       PRES   REMARKS
GULFPORT       CLOUDY    84  73  69 E13       29.85F HX  90
PASCAGOULA     MOSUNNY   85  72  65 SE10      29.86F HX  91
MOBILE         CLOUDY    80  71  74 W3        29.87F
GULF SHORES    MOCLDY    84  74  72 E10G20    29.86F HX  91
DESTIN         MOSUNNY   87  70  56 E8        29.87F HX  92
PANAMA CITY    CLOUDY    84  75  74 S6        29.87S HX  92
APPALACHICOLA  SUNNY     84  76  76 SE12      29.85F HX  93
$$





USA.gov is the U.S. government's official web portal to all federal, state and local government web resources and services.